TimePST,TemperatureF,Dew PointF,Humidity,Sea Level PressureIn,VisibilityMPH,Wind Direction,Wind SpeedMPH,Gust SpeedMPH,PrecipitationIn,Events,Conditions,WindDirDegrees,DateUTC
12:54 AM,54.0,50.0,86,30.09,6.0,SE,4.6,-,N/A,,Overcast,140,2012-11-29 08:54:00
1:54 AM,54.0,51.1,90,30.09,6.0,Calm,Calm,-,N/A,,Overcast,0,2012-11-29 09:54:00
2:54 AM,54.0,51.1,90,30.10,5.0,Calm,Calm,-,N/A,,Overcast,0,2012-11-29 10:54:00
3:54 AM,54.0,51.1,90,30.10,4.0,WNW,4.6,-,N/A,,Overcast,290,2012-11-29 11:54:00
4:54 AM,55.0,52.0,89,30.11,5.0,Calm,Calm,-,0.00,,Overcast,0,2012-11-29 12:54:00
5:54 AM,55.0,51.1,86,30.13,4.0,SE,6.9,-,N/A,,Overcast,140,2012-11-29 13:54:00
6:54 AM,55.0,52.0,89,30.15,4.0,South,4.6,-,N/A,,Overcast,180,2012-11-29 14:54:00
7:13 AM,53.6,50.0,88,30.16,2.0,SE,6.9,-,N/A,,Overcast,130,2012-11-29 15:13:00
7:54 AM,53.6,50.0,88,30.16,2.0,SSE,5.8,-,N/A,,Scattered Clouds,150,2012-11-29 15:54:00
8:54 AM,55.0,52.0,89,30.17,2.5,ESE,5.8,-,0.00,,Overcast,120,2012-11-29 16:54:00
9:16 AM,55.4,51.8,88,30.17,3.0,SSE,4.6,-,N/A,,Haze,150,2012-11-29 17:16:00
9:54 AM,57.9,51.1,78,30.18,3.0,SSE,3.5,-,N/A,,Haze,160,2012-11-29 17:54:00
10:54 AM,61.0,52.0,72,30.14,4.0,Calm,Calm,-,N/A,,Haze,0,2012-11-29 18:54:00
11:54 AM,63.0,52.0,67,30.13,6.0,Calm,Calm,-,N/A,,Haze,0,2012-11-29 19:54:00
12:54 PM,66.9,53.1,61,30.10,6.0,Calm,Calm,-,N/A,,Haze,0,2012-11-29 20:54:00
1:54 PM,71.1,51.1,49,30.08,10.0,North,6.9,-,N/A,,Scattered Clouds,10,2012-11-29 21:54:00
2:54 PM,72.0,48.9,44,30.06,10.0,Variable,4.6,-,N/A,,Mostly Cloudy,0,2012-11-29 22:54:00
3:54 PM,69.1,51.1,53,30.06,10.0,NW,5.8,-,N/A,,Partly Cloudy,310,2012-11-29 23:54:00
4:54 PM,64.9,51.1,61,30.07,10.0,WNW,5.8,-,N/A,,Partly Cloudy,290,2012-11-30 00:54:00
5:54 PM,63.0,52.0,67,30.09,10.0,NW,3.5,-,N/A,,Clear,310,2012-11-30 01:54:00
6:54 PM,62.1,54.0,75,30.10,10.0,North,4.6,-,N/A,,Partly Cloudy,360,2012-11-30 02:54:00
7:54 PM,59.0,52.0,78,30.09,9.0,NE,8.1,-,N/A,,Clear,50,2012-11-30 03:54:00
8:54 PM,60.1,51.1,72,30.09,10.0,SSE,10.4,-,N/A,,Mostly Cloudy,160,2012-11-30 04:54:00
9:54 PM,59.0,52.0,78,30.09,10.0,East,4.6,-,N/A,,Clear,90,2012-11-30 05:54:00
10:54 PM,55.9,50.0,80,30.08,10.0,Calm,Calm,-,N/A,,Clear,0,2012-11-30 06:54:00
11:54 PM,57.9,50.0,75,30.06,10.0,East,4.6,-,N/A,,Clear,90,2012-11-30 07:54:00